EW5676 Weather Reports


Display with metric or nautical units.
time (UTC)temp
F
wind
direction
speed
MPH
gust
MPH
rain 1hr
in
rain 24hr
in
rain mn
in
humidity
%
barometer
mb
20260905105147 67 290 1.0 3.0 0.00 0.00 0.00 86 1015.8
20260905104247 66 304 2.0 3.0 0.00 0.00 0.00 85 1015.7
20260905102447 66 305 2.0 4.0 0.00 0.00 0.00 85 1015.6
20260905101547 66 298 0.0 2.0 0.00 0.00 0.00 85 1015.6
20260905100647 66 292 0.0 2.0 0.00 0.00 0.00 84 1015.6
20260905095747 67 310 1.0 2.0 0.00 0.00 0.00 83 1015.6
20260905094846 67 318 2.0 4.0 0.00 0.00 0.00 82 1015.5
20260905093946 68 331 2.0 5.0 0.00 0.00 0.00 81 1015.4
20260905093046 68 322 3.0 5.0 0.00 0.00 0.00 80 1015.5
20260905092147 68 326 3.0 5.0 0.00 0.00 0.00 80 1015.5
20260905091247 69 319 3.0 5.0 0.00 0.00 0.00 79 1015.5
20260905090347 69 319 3.0 6.0 0.00 0.00 0.00 79 1015.5
20260905085446 69 307 3.0 8.0 0.00 0.00 0.00 78 1015.6
20260905084546 69 313 3.0 5.0 0.00 0.00 0.00 78 1015.5
20260905080946 69 323 3.0 6.0 0.00 0.00 0.00 77 1015.4
20260905080047 69 324 3.0 5.0 0.00 0.00 0.00 77 1015.4
20260905075147 69 336 3.0 8.0 0.00 0.00 0.00 77 1015.3
20260905074246 70 338 3.0 8.0 0.00 0.00 0.00 76 1015.3
20260905073346 70 328 4.0 6.0 0.00 0.00 0.00 75 1015.3
20260905072446 70 335 3.0 6.0 0.00 0.00 0.00 75 1015.3
20260905071546 70 334 4.0 8.0 0.00 0.00 0.00 75 1015.4
20260905070647 71 328 4.0 7.0 0.00 0.00 0.00 74 1015.5
20260905065746 71 322 4.0 7.0 0.00 0.00 0.00 74 1015.6
20260905064847 71 327 4.0 7.0 0.00 0.00 0.00 73 1015.7
20260905063946 72 331 4.0 7.0 0.00 0.00 0.00 72 1015.7
20260905063047 72 328 4.0 9.0 0.00 0.00 0.00 72 1015.7
20260905062146 72 323 5.0 10.0 0.00 0.00 0.00 71 1015.8
20260905061246 72 324 6.0 11.0 0.00 0.00 0.00 70 1015.8
20260905060346 72 322 6.0 12.0 0.00 0.00 0.00 69 1015.9
20260905055446 72 322 5.0 9.0 0.00 0.00 0.00 69 1015.9
20260905054547 73 323 5.0 10.0 0.00 0.00 0.00 69 1016.0
20260905053646 73 316 5.0 11.0 0.00 0.00 0.00 69 1016.1
20260905052747 72 327 4.0 7.0 0.00 0.00 0.00 70 1016.2
20260905051846 72 334 4.0 9.0 0.00 0.00 0.00 70 1016.3
20260905050947 72 325 4.0 7.0 0.00 0.00 0.00 71 1016.4
20260905050046 73 321 4.0 6.0 0.00 0.00 0.00 72 1016.4
20260905045146 72 332 3.0 7.0 0.00 0.00 0.00 73 1016.4
20260905044246 72 347 2.0 5.0 0.00 0.00 0.00 73 1016.5
20260905043346 72 346 2.0 4.0 0.00 0.00 0.00 74 1016.5
20260905042447 72 338 2.0 5.0 0.00 0.00 0.00 75 1016.6
20260905041546 72 331 3.0 5.0 0.00 0.00 0.00 75 1016.7
20260905035746 72 346 2.0 4.0 0.00 0.00 0.00 78 1016.7
20260905034846 72 326 3.0 6.0 0.00 0.00 0.00 80 1016.7
20260905033946 71 309 2.0 5.0 0.00 0.00 0.00 87 1016.6
20260905033046 70 305 1.0 2.0 0.00 0.00 0.00 91 1016.6
20260905032146 69 298 0.0 2.0 0.00 0.00 0.00 92 1016.6
20260905031247 68 0 0.0 0.0 0.00 0.00 0.00 93 1016.5
20260905030347 68 261 0.0 1.0 0.00 0.00 0.00 93 1016.4
20260905025447 67 0 0.0 0.0 0.00 0.00 0.00 93 1016.3
20260905024546 67 0 0.0 0.0 0.00 0.00 0.00 93 1016.4
20260905023646 67 0 0.0 0.0 0.00 0.00 0.00 93 1016.4
20260905022746 68 0 0.0 0.0 0.00 0.00 0.00 93 1016.4
20260905021847 68 0 0.0 0.0 0.00 0.00 0.00 92 1016.4
20260905020946 68 0 0.0 0.0 0.00 0.00 0.00 92 1016.5
20260905020046 68 0 0.0 0.0 0.00 0.00 0.00 91 1016.6
20260905015146 69 0 0.0 0.0 0.00 0.00 0.00 91 1016.5
20260905014246 69 0 0.0 0.0 0.00 0.00 0.00 91 1016.5
20260905013346 69 0 0.0 0.0 0.00 0.00 0.00 90 1016.5
20260905012447 70 262 0.0 1.0 0.00 0.00 0.00 90 1016.6
20260905011546 70 268 0.0 1.0 0.00 0.00 0.00 90 1016.5
20260905010647 70 311 0.0 2.0 0.00 0.00 0.00 90 1016.6
20260905005746 70 0 0.0 0.0 0.00 0.00 0.00 90 1016.7
20260905004847 70 0 0.0 0.0 0.00 0.00 0.00 89 1016.6
20260905003946 71 0 0.0 0.0 0.00 0.00 0.00 89 1016.6
20260905003046 71 0 0.0 0.0 0.00 0.00 0.00 88 1016.7
20260905001246 71 0 0.0 0.0 0.00 0.00 0.00 87 1016.4
20260905000347 71 0 0.0 0.0 0.00 0.00 0.00 86 1016.5
20260904235448 72 0 0.0 0.0 0.00 0.00 0.00 85 1016.5
20260904234546 73 0 0.0 0.0 0.00 0.00 0.00 83 1016.4
20260904233647 74 0 0.0 0.0 0.00 0.00 0.00 81 1016.2
20260904232746 75 0 0.0 0.0 0.00 0.00 0.00 79 1016.3
20260904231847 76 0 0.0 0.0 0.00 0.00 0.00 77 1016.1
20260904230946 77 0 0.0 0.0 0.00 0.00 0.00 73 1016.2
20260904230047 80 0 0.0 0.0 0.00 0.00 0.00 69 1016.2
20260904225146 80 304 1.0 3.0 0.00 0.00 0.00 69 1016.2
20260904224246 81 328 1.0 2.0 0.00 0.00 0.00 66 1016.3
20260904223347 81 317 2.0 5.0 0.00 0.00 0.00 65 1016.2
20260904221546 81 325 2.0 6.0 0.00 0.00 0.00 61 1016.2
20260904220647 82 292 1.0 4.0 0.00 0.00 0.00 61 1016.2
20260904215746 82 282 1.0 4.0 0.00 0.00 0.00 63 1016.1
20260904214846 82 286 2.0 4.0 0.00 0.00 0.00 63 1016.0
20260904213946 82 315 2.0 6.0 0.00 0.00 0.00 63 1016.0
20260904213047 82 343 3.0 6.0 0.00 0.00 0.00 62 1016.0
20260904212146 81 350 4.0 6.0 0.00 0.00 0.00 63 1016.1
20260904211246 81 320 4.0 9.0 0.00 0.00 0.00 61 1016.2
20260904210346 82 305 3.0 6.0 0.00 0.00 0.00 63 1016.3
20260904205446 82 320 3.0 6.0 0.00 0.00 0.00 61 1016.3
20260904204547 81 320 5.0 9.0 0.00 0.00 0.00 61 1016.3
20260904203646 82 303 3.0 8.0 0.00 0.00 0.00 58 1016.3
20260904202746 82 320 4.0 8.0 0.00 0.00 0.00 61 1016.3
20260904201846 82 324 4.0 9.0 0.00 0.00 0.00 59 1016.3
20260904200046 81 320 6.0 10.0 0.00 0.00 0.00 57 1016.4
20260904195146 81 314 5.0 9.0 0.00 0.00 0.00 57 1016.4
20260904192446 82 314 4.0 13.0 0.00 0.00 0.00 56 1016.8
20260904191546 81 319 5.0 12.0 0.00 0.00 0.00 58 1016.9
20260904190646 81 337 7.0 13.0 0.00 0.00 0.00 58 1016.8
20260904185746 81 326 7.0 13.0 0.00 0.00 0.00 58 1016.8
20260904184846 81 318 7.0 13.0 0.00 0.00 0.00 58 1016.7
20260904183947 81 323 5.0 12.0 0.00 0.00 0.00 60 1017.0
20260904181246 81 324 5.0 11.0 0.00 0.00 0.00 59 1016.7
20260904180346 81 316 7.0 14.0 0.00 0.00 0.00 59 1016.9
20260904173646 81 344 6.0 14.0 0.00 0.00 0.00 60 1016.7
20260904172746 80 340 10.0 18.0 0.00 0.00 0.00 61 1016.8
20260904171846 80 322 9.0 17.0 0.00 0.00 0.00 61 1016.8
20260904170946 80 326 8.0 14.0 0.00 0.00 0.00 64 1016.9
20260904165146 80 330 6.0 14.0 0.00 0.00 0.00 66 1016.9
20260904164246 81 331 6.0 14.0 0.00 0.00 0.00 68 1016.8
20260904163346 80 338 8.0 15.0 0.00 0.00 0.00 69 1016.8
20260904161547 80 315 8.0 16.0 0.00 0.00 0.00 74 1016.9
20260904160646 80 323 8.0 16.0 0.00 0.00 0.00 71 1017.0
20260904155747 80 326 10.0 19.0 0.00 0.00 0.00 73 1017.1
20260904153947 79 333 7.0 14.0 0.00 0.00 0.00 79 1017.1
20260904153046 79 312 6.0 13.0 0.00 0.00 0.00 80 1017.1
20260904152147 78 309 6.0 12.0 0.00 0.00 0.00 82 1017.2
20260904151247 78 295 4.0 8.0 0.00 0.00 0.00 83 1017.3
20260904150347 78 294 5.0 9.0 0.00 0.00 0.00 82 1017.2
20260904145446 78 305 4.0 11.0 0.00 0.00 0.00 81 1017.3
20260904144546 77 330 6.0 10.0 0.00 0.00 0.00 83 1017.3
20260904142747 77 313 5.0 9.0 0.00 0.00 0.00 83 1017.2
20260904141846 76 333 5.0 10.0 0.00 0.00 0.00 83 1017.2
20260904140946 76 320 4.0 9.0 0.00 0.00 0.00 85 1017.1
20260904134246 75 309 4.0 7.0 0.00 0.00 0.00 87 1017.1
20260904133346 75 329 5.0 10.0 0.00 0.00 0.00 89 1017.0
20260904132447 74 319 5.0 10.0 0.00 0.00 0.00 90 1017.0
20260904131547 74 322 5.0 14.0 0.00 0.00 0.00 90 1017.0
20260904130646 74 317 5.0 9.0 0.00 0.00 0.00 90 1017.0
20260904125746 73 325 5.0 10.0 0.00 0.00 0.00 91 1016.9
20260904123946 73 319 4.0 9.0 0.00 0.00 0.00 93 1016.9
20260904123046 73 323 4.0 10.0 0.00 0.00 0.00 94 1017.0
20260904122146 72 320 4.0 8.0 0.00 0.00 0.00 94 1017.0
20260904121246 72 313 4.0 9.0 0.00 0.00 0.00 94 1017.0
20260904120346 72 309 5.0 9.0 0.00 0.00 0.00 94 1016.9
20260904115446 72 310 5.0 10.0 0.00 0.00 0.00 94 1016.9
20260904114546 72 314 4.0 10.0 0.00 0.00 0.00 95 1016.9
20260904113647 72 312 6.0 11.0 0.00 0.00 0.00 95 1016.8
20260904112747 71 311 5.0 9.0 0.00 0.00 0.00 95 1016.8
20260904111846 71 305 5.0 10.0 0.00 0.00 0.00 95 1016.8
20260904110946 71 309 4.0 8.0 0.00 0.00 0.00 96 1016.8
20260904110046 71 316 4.0 8.0 0.00 0.00 0.00 96 1016.6